Regional Weather Roundup
Issued by NWS Little Rock, AR

Home | Current Version | Previous Version | Text Only | Print | Product List | Glossary Off
Versions: 1 2 3 4 5 6 7 8 9 10 11 12 13 14 15 16 17 18 19 20 21 22 23 24 25 26 27 28 29 30 31 32 33 34 35 36 37 38 39 40 41 42 43 44 45 46 47 48 49 50

843
ASUS44 KLZK 302005
RWRLZK

WEATHER ROUNDUP FOR ARKANSAS
NATIONAL WEATHER SERVICE LITTLE ROCK AR
300 PM CDT SAT APR 30 2016

NOTE: "FAIR" INDICATES FEW OR NO CLOUDS BELOW 12,000 FEET WITH NO
SIGNIFICANT WEATHER AND/OR OBSTRUCTIONS TO VISIBILITY.

ARZ001-003-010-029-302100-
NORTHWEST ARKANSAS

CITY           SKY/WX    TMP DP  RH WIND       PRES   REMARKS
FAYETTEVILLE   PTSUNNY   68  64  87 W14G20    29.77R
FORT SMITH     PTSUNNY   73  62  68 NW15      29.74R
HARRISON       MOSUNNY   77  62  59 W9        29.73R
BENTONVILLE    CLOUDY    64  57  77 W8        29.79R
ROGERS         CLOUDY    68  62  81 W12       29.78R
SILOAM SPGS    CLOUDY    64  54  68 W9        29.79S
HIGHFILL       CLOUDY    65  61  87 W13       29.78R
SPRINGDALE     CLOUDY    68  63  83 W12G18    29.79R
$$

ARZ004-005-016-302100-
NORTH CENTRAL ARKANSAS

CITY           SKY/WX    TMP DP  RH WIND       PRES   REMARKS
BATESVILLE     SUNNY     77  63  61 S12       29.74S
FLIPPIN        MOSUNNY  N/A N/A N/A S3        29.70S
MTN HOME       MOSUNNY   75  61  61 VRB3      29.72S
$$

ARZ040-041-302100-
WEST CENTRAL ARKANSAS

CITY           SKY/WX    TMP DP  RH WIND       PRES   REMARKS
MENA           PTSUNNY   81  66  61 SW5       29.75R
MOUNT IDA      PTSUNNY   79  64  60 VRB6      29.72S
$$

ARZ009-017-025-026-028-302100-
NORTHEAST ARKANSAS

CITY           SKY/WX    TMP DP  RH WIND       PRES   REMARKS
CORNING          N/A     72  64  78 S8        29.77F
JONESBORO      CLOUDY    74  61  63 S9        29.76F
NEWPORT        MOSUNNY   76  62  61 S7        29.75F
WALNUT RIDGE   CLOUDY    73  61  64 S9        29.75F
BLYTHEVILLE    CLOUDY    73  62  68 S5        29.78F
$$

ARZ022-023-033-042-044-302100-
CENTRAL ARKANSAS

CITY           SKY/WX    TMP DP  RH WIND       PRES   REMARKS
LITTLE ROCK    MOSUNNY   78  63  59 SW8       29.74S
N LITTLE ROCK    N/A     76  64  65 SW8G16    29.73S
JACKSONVILLE   SUNNY     77  64  63 S9        29.74R
SEARCY         SUNNY     77  63  61 S17       29.76R
HOT SPRINGS    SUNNY     77  62  59 SW8       29.75S
RUSSELLVILLE   PTSUNNY   77  64  64 MISG      29.72S
$$

ARZ036-302100-
EAST ARKANSAS

CITY           SKY/WX    TMP DP  RH WIND       PRES   REMARKS
WEST MEMPHIS   CLOUDY    70  63  78 SE22      29.71F
$$

ARZ050-053-066-070-073-302100-
SOUTHWEST ARKANSAS

CITY           SKY/WX    TMP DP  RH WIND       PRES   REMARKS
ARKADELPHIA    FAIR      78  70  76 CALM      29.75F
CAMDEN         SUNNY     82  61  47 S10       29.72F
TEXARKANA      PTSUNNY   79  67  66 E6        29.73S
EL DORADO      LGT RAIN  81  66  60 S13       29.73R
DE QUEEN       PTSUNNY   80  68  66 VRB6      29.72R
$$

ARZ056-057-069-302100-
SOUTHEAST ARKANSAS

CITY           SKY/WX    TMP DP  RH WIND       PRES   REMARKS
PINE BLUFF     SUNNY     78  62  57 SW10      29.75R
STUTTGART      SUNNY     77  61  57 SW10      29.76S
MONTICELLO     SUNNY     81  62  52 S14G22    29.74R

$$






USA.gov is the U.S. government's official web portal to all federal, state and local government web resources and services.